Wind_Speed
23 21 22 23 20 19 21 22 21 20 20 22 24 26 23 21 24 26 25 25 25 23 21 19 18 16 15 16 16 15 15 15 14 15 15 15 14 13 13 12 11 10 10 10 10 10 12 13 13 13 13 12 11 12 15 17 19 22 23 23 23 21 19 17 12 10 14 17 16 15 15 18 19 18 18 17 16 14 13 13 13 14 15 16 17
23 21 23 22 19 18 20 21 21 21 22 24 25 25 24 25 26 27 26 25 25 23 21 19 16 15 16 17 16 15 16 16 15 16 16 14 13 13 12 12 12 11 10 10 10 10 12 13 13 12 13 12 12 11 12 14 16 20 22 22 23 24 21 18 15 14 15 16 17 17 17 20 21 20 19 18 17 16 15 15 16 16 17 18 20
19 18 20 20 19 19 20 21 22 22 23 25 24 24 27 29 29 29 27 25 23 21 20 18 17 18 18 16 15 15 16 17 16 15 14 13 13 12 11 11 13 12 11 11 11 11 11 12 12 12 11 11 11 9 10 11 11 16 20 20 22 24 24 21 18 18 17 17 19 20 20 21 22 20 19 18 17 17 17 17 17 18 19 21 22
13 16 19 20 19 20 21 21 23 24 25 27 28 28 31 32 31 28 26 24 22 20 17 17 19 20 18 16 16 16 17 18 17 14 12 12 11 10 11 12 13 12 12 12 11 11 12 12 12 11 10 10 8 6 7 8 8 11 16 18 18 22 26 25 21 21 21 20 21 23 23 23 22 20 20 20 19 18 17 17 18 19 21 23 24
11 14 19 20 20 22 24 23 25 26 28 30 31 32 34 32 29 27 26 24 21 18 17 18 21 21 18 18 17 16 17 16 15 13 11 10 10 10 12 13 13 12 13 13 12 11 11 12 12 10 9 8 5 2 3 6 7 9 12 14 15 19 24 26 24 23 23 23 23 23 23 23 22 22 22 22 21 20 19 19 19 20 23 25 26
9 12 17 18 17 22 25 25 26 27 30 32 31 31 31 30 28 26 26 24 20 19 20 21 21 20 18 18 17 15 15 13 12 12 11 10 10 9 11 13 13 13 13 12 11 10 11 12 11 9 7 5 4 4 5 6 6 8 9 11 14 17 21 24 24 23 23 24 25 24 24 25 24 23 25 24 23 22 22 20 20 21 24 27 28
7 8 11 12 13 18 21 22 23 23 27 31 29 28 28 26 26 26 24 23 22 21 22 22 20 19 18 17 16 15 14 12 12 12 11 10 10 8 9 12 15 15 13 12 12 11 12 12 10 8 7 7 8 8 8 8 8 8 9 11 11 14 17 19 21 21 22 23 24 24 26 28 26 24 25 27 25 23 23 23 23 24 26 29 31
8 6 6 6 6 10 13 15 17 17 21 24 25 26 26 24 25 26 24 24 22 20 21 21 20 20 19 18 17 15 14 13 13 14 12 11 10 10 11 15 17 17 15 14 14 13 13 12 11 10 10 11 11 9 8 8 9 9 9 9 9 12 14 16 18 20 21 22 23 24 25 26 26 23 22 24 25 24 25 26 26 27 28 31 33
7 5 5 4 3 6 9 10 11 14 16 19 21 23 24 24 24 24 23 23 21 19 20 21 22 22 21 19 18 17 15 15 15 14 13 12 12 13 16 17 18 18 18 16 15 15 15 14 13 12 11 11 10 9 7 7 8 9 8 7 6 7 9 10 12 15 19 20 21 21 21 22 25 23 21 24 29 29 28 27 27 27 27 30 33
4 4 5 6 5 8 12 10 11 15 17 20 21 19 20 24 23 21 23 24 21 18 19 21 22 22 21 20 19 17 16 16 15 14 13 15 16 17 17 18 19 19 20 19 17 16 15 14 12 10 9 8 8 7 6 5 4 4 4 5 5 5 5 5 5 7 12 15 17 18 18 19 22 23 24 28 31 28 24 25 28 28 24 24 29
3 3 8 11 11 11 14 14 14 16 17 21 21 17 19 23 22 21 23 23 20 18 18 19 21 22 22 21 19 17 16 16 15 15 16 17 18 17 17 18 20 20 20 19 17 16 14 12 11 8 6 5 4 3 3 2 1 1 1 2 3 3 3 3 2 2 3 5 6 8 11 12 12 16 19 23 27 27 25 25 27 26 23 21 23
14 8 6 10 14 14 14 16 17 17 19 22 19 15 19 23 22 22 23 20 19 19 19 21 23 24 23 22 20 19 18 17 18 18 17 16 16 16 17 18 18 17 17 16 15 12 11 9 6 3 1 1 1 1 1 1 2 2 2 2 2 2 2 1 1 1 3 4 3 5 8 7 7 12 15 18 22 26 27 26 26 27 27 26 26
21 17 14 12 14 17 18 17 17 17 19 20 17 16 20 23 22 22 23 22 22 22 23 25 26 26 25 24 23 22 21 20 20 20 18 18 18 17 17 16 16 15 13 12 10 8 7 5 4 3 4 4 2 2 3 3 3 4 4 4 3 3 2 2 1 0 3 5 5 7 9 7 8 11 14 16 18 19 22 25 26 28 30 31 33
24 21 17 14 14 17 19 20 19 17 17 19 20 20 23 24 25 26 27 27 27 27 27 27 26 25 25 25 24 23 21 19 19 20 20 19 19 18 17 15 13 12 9 8 7 5 5 5 4 4 4 4 3 3 4 4 5 5 5 5 5 5 5 3 1 2 4 5 5 6 7 8 8 8 10 13 15 15 16 18 20 24 27 29 31
25 23 19 16 16 17 18 21 23 21 21 23 24 23 24 25 27 29 32 32 31 31 29 27 26 25 23 23 23 22 20 17 16 17 17 16 16 15 13 10 9 9 8 7 8 8 8 6 4 3 2 3 3 3 4 4 6 7 6 6 6 6 5 3 2 4 6 7 9 9 9 10 11 11 10 12 13 14 14 14 15 18 21 23 24
25 24 22 19 17 16 17 21 23 24 25 27 27 26 27 28 29 30 33 32 30 30 29 26 25 24 21 20 20 19 18 15 14 12 11 10 9 8 9 9 9 10 10 9 8 8 7 6 4 2 2 3 4 4 4 4 5 6 6 6 6 5 4 3 4 5 7 8 10 12 12 12 12 12 13 13 13 14 15 15 16 17 18 19 20
25 25 24 21 17 14 15 18 20 21 23 26 28 28 27 27 27 27 28 29 27 26 26 24 22 21 20 18 17 17 16 14 12 11 9 9 10 11 13 14 12 11 10 9 7 6 6 4 3 2 2 4 4 4 4 3 4 5 5 5 6 6 5 5 6 7 8 9 10 11 12 12 12 12 13 14 15 17 17 18 19 18 16 17 18
24 25 25 24 20 15 13 15 16 17 18 19 22 23 21 20 20 19 21 25 26 24 23 23 22 20 19 17 15 15 16 14 12 11 10 11 13 15 15 14 13 13 12 11 9 7 6 5 3 3 2 1 1 2 2 2 2 3 4 4 4 4 5 6 7 8 8 8 7 8 10 11 11 12 12 14 15 15 15 17 18 18 18 19 16
23 24 24 24 23 20 17 15 15 16 16 15 17 19 17 14 13 14 18 23 24 22 21 22 22 20 16 15 15 16 17 16 14 13 13 12 13 14 14 14 15 15 13 12 11 8 7 6 5 4 4 4 4 4 4 4 3 3 3 4 5 5 6 7 7 7 7 6 6 7 8 9 10 10 11 12 12 13 13 15 15 16 21 23 17
22 23 23 24 24 23 21 19 17 17 17 16 16 18 18 16 14 15 19 21 23 23 22 22 24 22 19 18 18 18 18 18 16 14 14 13 13 13 14 15 17 16 14 13 12 11 9 8 7 7 7 7 7 6 6 6 6 6 5 5 6 6 7 7 7 7 7 7 8 8 8 9 10 10 11 10 11 11 12 14 14 13 16 18 15
22 22 22 24 24 23 23 22 20 19 18 18 18 18 20 20 21 22 23 24 25 27 27 27 27 26 22 21 21 20 19 19 17 15 14 13 13 13 14 16 17 16 15 14 12 11 10 8 8 7 6 6 7 7 7 7 7 7 7 6 6 7 7 8 8 8 8 8 8 9 9 10 10 10 11 10 11 11 11 13 13 12 12 13 14
21 21 22 23 24 23 23 22 21 20 19 19 20 19 20 22 24 26 27 27 28 29 29 28 28 26 24 22 22 21 19 18 18 16 15 14 14 13 14 15 13 12 13 12 11 9 8 6 6 5 5 5 6 6 6 6 6 6 6 6 6 7 7 8 8 8 7 6 6 7 8 9 9 9 10 11 12 12 11 11 12 11 10 9 10
20 21 22 23 23 23 22 22 21 21 20 20 21 21 21 22 23 25 27 28 28 28 28 28 28 26 24 23 22 20 19 17 17 15 14 13 13 13 13 12 10 8 8 8 8 6 5 4 3 3 4 4 5 5 6 6 7 7 7 7 7 7 7 7 7 7 7 7 7 8 9 9 9 9 9 9 10 10 10 9 8 8 7 6 7
19 20 21 22 22 22 22 22 21 21 21 21 22 22 22 22 22 23 25 26 26 24 23 24 25 25 23 22 21 19 18 17 16 15 13 12 11 10 10 9 8 6 5 5 5 4 4 4 4 4 5 7 7 8 9 10 11 11 11 11 10 10 10 11 10 10 10 11 11 11 12 12 11 10 8 6 6 6 5 4 3 3 3 2 1
17 18 19 20 20 20 21 22 23 22 22 22 23 23 22 22 22 22 21 22 22 21 20 21 22 23 21 20 19 18 17 16 15 14 13 12 11 10 9 8 8 7 6 6 6 5 5 6 6 7 9 10 10 11 12 12 13 13 13 13 13 14 15 15 15 15 14 13 13 12 11 11 10 9 7 4 3 4 3 2 1 1 2 3 3
16 17 18 18 18 18 19 21 22 24 24 24 24 24 23 24 23 22 21 21 21 20 20 20 20 20 19 18 17 16 16 15 14 13 12 12 11 11 10 9 9 8 8 8 7 7 7 7 7 8 9 9 10 11 11 10 11 12 12 12 12 13 14 15 15 16 15 14 13 12 11 10 8 6 3 1 2 3 3 3 2 2 2 1 2
19 19 20 20 20 19 20 20 21 22 23 24 24 25 24 24 25 24 23 22 22 20 19 17 17 17 17 16 15 15 15 14 13 12 12 11 11 10 10 10 9 9 9 10 10 10 10 10 10 9 9 9 10 10 10 9 9 10 10 10 10 10 10 11 12 12 12 12 12 12 11 9 8 5 3 0 1 3 3 1 1 1 1 2 2
20 20 21 22 22 22 22 22 22 23 23 23 23 24 23 23 23 24 22 21 20 19 17 15 15 15 15 14 13 14 14 13 12 12 11 10 11 12 12 12 11 11 13 14 15 15 15 14 14 13 12 13 13 13 13 12 11 11 10 9 8 8 8 9 10 10 10 9 10 10 9 8 6 5 3 2 1 1 1 1 1 0 1 2 4
18 20 21 21 22 23 23 24 24 25 25 25 26 25 24 23 24 24 22 20 18 17 17 17 15 14 15 15 14 14 14 12 11 10 9 9 11 13 14 14 14 15 17 17 17 17 17 17 17 17 17 17 17 17 16 15 14 12 11 10 10 9 9 9 10 10 9 8 9 10 9 8 6 4 3 3 2 2 2 2 2 3 3 4 6
15 17 19 20 20 21 22 23 23 24 25 26 26 26 25 24 25 24 23 21 19 17 18 18 17 16 17 17 16 15 13 10 7 6 6 8 10 12 13 14 15 17 17 17 16 17 18 19 20 19 18 17 17 16 15 14 13 13 12 11 10 9 9 9 8 8 8 8 9 10 10 8 6 4 3 3 4 4 4 4 4 4 4 5 6
16 14 15 17 17 18 19 19 20 20 21 22 23 24 24 24 24 23 22 21 20 19 18 18 17 17 17 17 16 15 13 9 6 4 4 6 8 11 14 15 16 16 15 13 16 18 19 20 20 18 17 16 16 14 13 12 12 12 11 11 10 9 9 8 8 7 7 8 10 9 8 7 5 3 3 4 5 6 6 5 5 4 4 5 5
19 17 15 14 14 14 14 14 15 16 17 17 18 19 20 21 21 21 20 20 19 18 18 18 17 17 16 15 14 14 14 12 9 6 6 8 10 14 17 16 15 14 11 11 16 19 18 18 19 17 16 16 15 14 12 12 12 12 12 11 10 9 8 8 7 6 6 7 8 8 7 6 4 3 4 5 6 6 6 5 5 5 5 4 5
19 18 17 16 14 12 11 11 11 11 12 13 13 14 15 16 17 18 18 18 17 16 16 16 15 14 14 13 13 14 15 14 12 13 14 16 17 19 19 17 15 12 9 11 17 19 17 17 17 16 16 16 15 14 14 14 13 14 13 12 10 8 8 8 7 6 5 6 6 6 5 4 3 3 5 5 5 5 5 5 6 5 5 5 5
15 15 16 16 15 14 12 11 10 9 9 10 11 11 11 11 13 15 17 17 16 15 14 13 12 12 12 12 11 12 13 14 15 18 19 20 19 19 18 16 14 11 10 13 17 17 16 16 16 15 14 14 14 13 14 13 14 14 14 12 10 8 7 7 7 7 6 5 5 5 5 4 4 4 5 4 5 5 6 7 7 6 6 6 6
12 11 12 13 15 14 13 12 12 13 12 12 12 12 11 10 9 12 15 15 14 13 12 11 10 10 10 10 10 11 11 12 13 14 16 17 17 14 13 14 14 14 14 15 15 15 15 14 14 13 13 13 13 13 13 13 14 15 14 13 11 10 8 8 8 8 7 7 7 7 6 6 6 5 5 6 7 8 9 8 7 7 7 6 7
14 13 13 13 14 14 13 13 14 14 14 13 12 12 12 11 11 13 13 12 11 9 9 9 10 10 11 11 10 10 10 10 10 10 11 11 9 7 9 14 16 15 15 14 13 13 13 13 13 13 12 12 12 12 12 13 13 13 13 13 13 12 11 11 10 10 9 9 9 9 8 7 7 6 6 8 8 8 8 8 8 7 8 8 9
13 13 12 11 11 11 11 12 12 12 11 11 11 11 12 14 14 14 12 11 10 10 9 9 11 12 12 12 11 11 11 11 11 12 11 10 8 8 12 15 15 14 14 12 11 12 13 12 11 11 11 11 11 11 11 12 12 12 12 14 14 14 14 13 12 12 11 10 9 8 7 7 6 5 6 7 7 7 7 8 8 8 8 8 9
10 10 10 10 11 11 10 9 9 9 9 10 10 11 13 15 15 14 12 11 11 12 12 11 11 12 12 11 11 11 12 14 15 16 15 14 13 14 16 16 16 16 17 16 15 16 15 13 11 10 9 9 9 10 10 11 12 12 13 14 14 14 14 13 12 11 10 9 8 7 7 7 7 6 6 7 7 7 7 8 8 8 8 8 8
8 8 8 8 9 10 10 9 8 7 8 10 11 11 13 15 15 14 13 12 12 12 12 11 10 10 10 10 10 9 12 16 18 18 18 17 17 17 18 18 20 21 21 20 19 18 17 14 12 11 10 10 10 10 10 11 11 11 11 11 12 13 12 11 11 10 9 9 8 8 8 8 7 7 7 8 8 8 8 8 8 8 9 8 6
6 6 6 6 7 8 8 8 7 7 7 8 9 10 11 12 12 12 11 10 9 11 12 10 8 9 9 9 8 8 11 15 16 15 16 17 16 16 17 18 19 20 19 18 17 17 17 16 16 15 15 14 13 12 11 10 10 9 9 9 11 12 12 12 11 11 10 9 8 8 8 9 8 7 7 8 9 9 9 10 11 10 8 7 6
7 7 7 7 7 8 8 7 7 7 7 6 7 8 9 9 9 9 7 6 5 8 12 10 8 10 10 9 7 7 10 13 13 12 13 14 14 14 15 15 15 15 14 14 14 15 16 16 17 17 17 15 13 11 10 10 9 9 8 9 11 12 12 11 11 11 10 9 9 8 8 8 8 7 6 6 6 6 7 10 10 7 8 11 11
8 8 7 7 7 7 7 6 5 6 7 6 5 5 7 7 7 6 5 4 3 5 10 9 10 13 13 10 9 8 10 11 11 11 11 12 12 12 12 12 11 11 11 11 11 12 13 14 15 15 15 15 13 11 9 9 9 8 8 9 9 10 10 9 9 9 9 8 8 8 7 7 7 6 6 5 4 3 5 7 7 7 9 10 10
7 8 6 6 7 7 7 6 5 5 6 6 5 3 6 6 5 5 4 2 2 4 7 9 10 14 14 11 9 9 10 10 9 10 11 12 12 11 11 10 10 10 10 10 9 9 10 11 12 12 12 12 12 11 10 9 8 6 6 6 7 7 7 7 7 7 7 6 5 5 5 6 6 5 5 6 6 4 4 4 6 7 8 8 8
5 7 6 4 5 5 5 4 4 4 4 6 7 3 5 7 5 5 4 2 3 4 5 6 8 12 13 10 8 8 9 9 9 9 11 11 11 11 10 9 9 8 8 8 7 7 7 8 8 8 8 8 8 8 8 8 7 5 4 4 5 6 6 6 5 5 5 4 4 4 4 5 5 3 3 5 7 5 3 3 5 6 6 6 7
4 4 4 3 2 1 2 2 3 4 4 5 7 6 4 9 8 6 4 3 5 5 4 4 6 8 10 9 7 6 7 7 8 9 9 10 9 9 8 7 7 7 7 6 5 5 4 4 5 5 5 5 5 5 5 5 5 5 4 4 3 4 4 4 3 3 3 3 4 4 4 6 6 4 3 5 7 7 6 4 5 5 5 5 5
4 2 2 2 1 1 3 4 4 4 3 3 6 6 2 9 10 7 4 2 4 5 3 3 4 5 7 7 7 6 6 6 7 7 7 7 6 6 6 6 5 5 5 5 4 3 2 2 2 3 3 4 4 4 3 3 3 3 2 2 2 2 1 1 0 0 1 2 3 3 3 5 5 4 4 4 5 6 7 7 7 7 7 6 5
2 1 1 1 2 2 3 5 6 6 5 5 6 5 1 6 9 7 5 4 3 3 2 2 3 4 5 6 6 6 6 5 5 5 5 5 4 3 3 4 4 3 3 3 2 1 1 1 1 2 2 2 2 2 2 2 2 1 0 1 1 2 2 2 2 2 2 2 3 3 3 3 4 3 3 3 3 3 3 4 5 6 6 6 6
1 1 1 1 3 4 5 6 7 7 7 7 7 4 1 4 7 7 6 7 7 5 4 4 3 4 5 5 5 6 6 6 4 5 4 3 2 2 2 2 2 1 1 0 0 0 1 1 1 1 2 2 2 2 2 2 2 1 2 2 3 3 3 3 3 3 3 3 3 3 3 4 4 3 3 2 1 1 2 2 3 3 3 4 5
1 1 2 3 4 5 6 7 7 7 7 8 8 7 4 5 6 6 6 8 9 8 7 7 5 4 5 5 5 5 7 7 7 6 5 3 2 2 1 1 2 2 2 2 1 2 2 1 2 2 2 2 3 3 3 4 3 3 3 3 3 4 4 4 4 3 4 3 3 3 3 3 3 3 2 1 1 1 1 2 3 3 3 3 4
1 1 3 5 6 6 6 6 7 8 9 9 9 10 9 8 8 7 6 7 9 11 12 11 9 7 6 6 5 5 6 7 8 8 7 5 4 3 2 2 3 3 3 2 2 2 1 2 4 3 2 3 3 3 4 4 4 4 5 4 3 3 4 5 4 4 3 3 3 3 2 2 2 1 1 1 2 1 1 1 3 4 4 5 5
4 4 5 6 7 6 6 6 7 9 9 8 8 11 12 11 11 10 10 10 11 12 14 15 13 11 10 8 7 6 6 7 8 10 10 9 7 5 4 3 4 4 4 3 1 0 2 4 5 4 3 3 3 3 4 4 5 6 6 5 3 1 2 4 5 4 4 4 4 4 3 2 1 1 2 2 2 1 0 1 3 5 6 5 4
Wind_Direction
193 192 201 203 197 192 190 189 190 194 191 183 183 177 178 197 192 176 174 174 173 176 176 176 176 177 179 180 177 171 166 162 158 158 156 154 156 160 164 170 172 173 172 175 181 182 185 185 182 183 184 183 187 192 195 196 197 200 201 200 201 202 194 180 161 165 191 204 210 212 207 198 196 196 193 191 188 188 192 195 198 200 200 199 196
189 192 196 197 196 194 192 191 192 193 184 179 184 179 177 191 188 176 172 173 174 177 175 174 176 177 174 170 169 169 169 168 162 158 157 158 165 171 174 179 182 179 178 180 181 177 178 180 180 182 182 182 184 188 193 195 199 203 202 204 207 207 202 194 176 166 181 200 208 210 205 200 200 199 199 199 195 194 196 197 201 204 204 201 197
189 191 194 194 196 197 197 197 193 188 182 179 182 178 177 183 181 173 171 170 171 172 171 172 172 171 168 164 163 164 165 168 165 163 166 169 174 178 184 190 187 183 185 188 186 183 182 180 180 181 182 183 186 189 191 194 204 208 207 211 215 212 209 205 193 182 180 188 202 207 202 201 204 204 203 205 204 202 203 205 207 207 205 202 200
203 196 194 193 197 199 200 198 192 186 182 177 173 171 172 175 175 173 170 167 167 170 171 170 169 167 164 162 162 158 158 164 165 167 172 176 182 187 194 198 194 188 188 189 186 186 188 184 180 180 183 184 185 189 198 211 226 219 216 219 218 214 211 209 205 197 186 183 197 206 204 203 207 208 205 206 208 209 210 211 211 211 209 206 204
224 212 203 199 199 199 199 196 189 183 178 172 169 168 169 170 171 171 169 167 169 172 169 165 165 164 162 165 165 157 158 163 166 169 171 173 182 185 182 185 185 180 180 182 178 178 185 185 181 181 182 181 178 162 189 217 225 218 217 215 207 205 206 206 208 204 194 190 194 200 205 205 206 208 208 206 206 208 212 214 214 215 213 210 210
233 227 219 215 206 200 198 191 182 178 175 170 168 169 168 168 170 170 168 168 170 170 167 163 161 162 165 168 164 157 160 161 162 169 169 166 170 168 168 175 175 171 174 176 172 170 174 175 175 177 173 157 138 118 119 144 164 175 186 191 192 196 200 204 206 203 199 198 194 194 201 205 206 208 211 211 209 208 209 213 217 219 218 216 215
270 255 243 235 217 206 200 186 177 178 176 172 170 172 170 168 170 170 167 168 169 170 173 169 164 162 163 163 160 162 167 163 164 174 175 170 163 152 160 172 168 165 167 167 163 157 158 160 158 155 142 116 109 112 113 120 129 146 164 171 179 188 195 200 201 198 197 196 194 194 199 203 207 210 213 214 215 214 211 210 214 219 221 221 220
299 296 280 260 226 213 201 180 176 182 179 174 172 173 171 169 172 173 171 170 171 175 178 176 172 168 165 165 166 170 172 169 169 174 173 171 164 146 145 154 157 160 160 156 154 149 147 148 140 132 124 113 110 110 108 108 111 119 140 157 165 173 182 188 194 197 198 195 194 198 201 202 207 211 212 211 213 218 219 216 217 219 220 222 224
311 316 287 251 218 201 191 176 177 185 183 178 172 170 171 172 175 177 175 172 171 173 176 176 176 173 170 172 175 176 176 173 171 172 172 169 158 143 140 144 149 156 154 146 144 142 139 136 130 125 119 113 112 113 108 102 101 103 108 118 131 149 164 175 188 199 202 201 199 200 202 204 207 208 206 207 213 220 222 220 222 225 223 224 227
307 291 251 209 177 175 178 173 172 173 173 176 175 173 173 174 175 175 173 172 170 169 169 170 172 172 171 171 174 175 176 174 172 170 167 160 148 137 134 136 139 144 145 142 139 136 132 128 125 126 126 120 113 108 105 98 92 99 109 112 107 106 119 134 159 180 191 197 200 203 205 207 211 212 212 216 218 221 223 223 226 229 229 230 233
50 195 193 174 158 161 167 165 163 160 160 169 177 183 180 175 173 172 171 169 168 167 164 161 161 163 162 160 161 163 165 165 161 155 152 153 149 139 131 132 134 137 140 142 139 134 130 128 126 125 125 127 123 107 97 89 71 58 168 168 155 136 111 109 131 150 178 191 199 215 214 204 205 215 221 224 223 223 226 230 230 230 230 232 238
57 80 119 140 143 150 160 163 162 160 160 165 173 181 180 176 173 171 168 163 161 159 154 150 149 149 149 146 143 142 143 143 141 141 143 148 149 142 134 133 133 134 138 140 138 134 132 133 134 131 145 233 243 237 245 252 264 272 261 235 215 192 169 151 150 197 245 241 238 247 238 220 213 221 224 227 229 229 232 235 237 235 232 231 236
52 57 59 77 112 133 150 159 158 158 162 166 165 161 162 163 163 162 159 153 150 146 142 141 139 138 139 136 130 127 127 128 129 131 135 139 139 134 127 126 127 127 128 129 129 129 127 127 138 169 203 227 233 231 243 251 257 256 244 228 213 188 176 169 119 275 254 239 231 237 242 245 241 236 231 230 233 235 235 237 241 239 235 234 238
50 55 59 62 83 110 132 141 139 137 145 151 151 147 145 145 145 145 144 141 138 134 132 131 129 128 130 129 125 123 122 120 120 121 123 126 128 124 116 112 112 110 106 107 116 120 106 99 114 151 184 209 215 222 238 248 251 253 251 237 222 213 211 209 224 293 293 284 277 275 279 281 275 265 249 239 242 248 248 249 249 244 241 243 248
49 53 59 63 69 84 104 118 121 122 125 130 131 129 127 124 125 128 131 130 128 127 126 125 123 123 123 125 125 122 120 120 121 120 119 118 118 112 105 101 102 104 108 113 117 115 105 104 121 158 198 227 239 245 246 245 246 250 251 241 228 224 231 236 251 278 284 287 292 295 296 292 286 280 267 254 254 260 264 265 262 255 253 253 253
49 51 55 61 70 78 87 100 110 115 118 120 118 113 111 112 115 119 122 123 123 123 123 121 120 119 119 123 124 119 116 119 123 125 126 131 131 115 110 123 128 125 128 129 122 115 115 121 131 158 224 248 260 269 264 253 254 259 254 241 232 234 246 256 262 271 277 284 291 294 294 292 286 278 270 263 262 263 268 276 276 268 259 253 253
47 51 54 60 71 83 90 95 101 107 111 116 116 112 107 107 109 112 114 115 116 116 116 114 114 114 114 115 117 115 112 112 121 130 136 149 159 153 141 140 141 139 140 140 137 136 136 144 158 180 228 254 267 280 287 279 269 275 275 261 247 242 249 258 262 271 281 289 294 295 295 293 286 278 271 269 270 270 270 272 274 270 259 250 251
48 53 56 61 69 80 92 98 100 102 103 108 113 115 110 104 104 108 110 111 111 111 110 110 107 105 103 100 103 109 108 108 119 130 132 139 150 152 148 142 139 141 142 137 137 143 145 154 171 167 168 215 282 317 328 332 306 288 290 287 272 257 263 275 281 284 286 288 294 300 301 298 292 284 277 272 271 273 271 269 271 271 265 260 262
54 57 59 64 69 76 87 97 101 102 104 108 113 118 121 119 118 121 119 116 114 113 113 110 104 100 98 98 102 106 106 106 113 122 130 140 148 148 148 146 140 138 137 131 128 130 127 123 113 99 91 79 63 50 36 33 30 16 344 328 323 312 302 302 303 302 298 294 297 301 301 303 302 295 287 279 276 276 276 276 277 271 266 266 272
63 65 67 69 70 72 79 89 95 97 102 110 115 121 129 135 137 132 125 120 118 118 117 113 107 105 107 108 105 103 102 101 103 112 124 135 143 146 150 151 146 138 130 124 122 118 110 101 91 82 75 67 60 50 42 37 33 32 25 10 1 350 338 332 323 313 308 305 302 299 295 298 301 299 296 294 290 287 284 284 287 280 271 274 279
69 72 72 71 71 72 74 80 87 92 98 109 117 122 128 135 138 133 126 123 120 117 114 111 107 105 105 104 100 97 97 96 96 101 110 119 131 141 145 147 146 140 128 120 116 111 103 94 84 75 64 53 46 37 33 30 25 23 22 16 12 1 352 350 342 327 317 305 296 295 294 296 298 295 294 294 292 291 290 289 292 293 287 286 286
72 73 74 72 71 71 73 76 82 88 94 104 111 114 119 126 129 128 126 124 121 115 112 111 108 103 100 98 96 94 94 94 94 96 101 108 116 123 125 127 134 136 128 118 111 106 98 86 73 60 45 35 32 33 37 38 35 33 27 20 16 8 0 359 357 351 345 330 314 309 310 313 315 308 300 294 290 288 291 292 293 297 298 291 284
73 71 72 73 73 73 73 75 80 84 89 97 102 103 107 112 114 116 120 119 116 113 112 111 109 104 98 95 94 93 91 91 91 92 95 101 107 111 115 117 120 125 122 112 104 97 88 76 62 52 45 46 53 58 61 60 59 56 49 41 33 26 20 16 12 10 10 6 0 355 348 344 339 329 316 303 289 280 279 285 289 292 298 294 283
71 68 68 70 73 76 78 78 81 85 88 94 98 98 100 102 103 106 111 111 110 108 107 107 106 102 98 95 93 93 92 90 89 88 88 93 97 101 107 110 109 109 108 102 94 87 84 82 81 83 84 81 80 78 74 73 72 69 66 63 59 52 45 39 33 27 22 19 15 9 4 1 356 348 339 319 286 263 257 265 280 291 303 308 286
72 73 71 68 69 74 79 82 84 87 90 93 95 94 96 98 99 101 105 106 106 105 103 101 99 97 95 93 92 94 94 92 91 91 91 92 95 98 99 96 93 91 93 98 93 87 94 104 106 104 98 91 88 86 82 81 81 79 77 75 69 61 53 47 41 37 34 30 21 13 7 3 1 359 352 323 264 235 224 206 161 103 84 91 104
79 80 78 75 73 74 79 83 85 87 89 91 92 94 96 98 98 99 102 105 108 110 108 103 98 95 93 91 90 92 94 94 95 96 98 99 99 100 97 91 88 89 91 95 96 97 106 114 113 107 100 94 92 89 86 87 89 87 84 78 71 63 55 50 45 41 40 37 26 20 18 15 11 8 3 281 210 190 176 169 153 124 97 44 36
82 83 81 81 81 81 84 87 88 88 87 88 88 90 93 95 95 94 96 101 107 111 111 105 98 95 92 90 89 88 88 91 94 96 100 101 99 97 93 90 92 97 99 100 100 102 106 105 100 98 98 97 94 87 83 88 93 92 85 77 72 67 59 55 49 43 40 37 31 27 25 23 21 16 9 27 150 144 147 178 271 326 347 341 29
85 84 82 81 83 86 88 90 91 90 89 88 87 85 85 88 88 86 87 92 98 101 101 96 92 91 90 89 87 84 81 82 86 91 95 97 95 92 87 85 91 98 101 103 104 104 105 103 99 99 100 98 94 88 84 84 86 86 82 75 74 78 72 63 53 44 37 34 33 33 29 26 27 24 14 10 34 112 120 315 313 344 79 78 85
92 87 83 82 84 87 88 89 90 91 90 89 87 85 84 84 84 83 83 84 87 90 91 88 85 86 87 84 81 79 76 73 79 88 93 95 96 92 83 84 95 102 103 106 109 108 103 97 92 90 90 88 84 79 77 77 77 77 76 72 71 75 76 67 52 40 33 31 36 37 31 26 27 28 23 32 72 104 113 115 119 123 114 93 81
101 95 90 88 88 87 87 88 89 90 91 92 91 89 87 85 84 84 83 82 82 83 85 85 84 83 83 79 75 74 71 69 72 81 89 96 98 91 86 91 101 104 104 106 105 99 93 86 80 77 76 75 71 67 65 65 66 64 63 64 66 69 71 65 50 37 33 37 42 40 32 27 27 27 33 68 99 109 113 120 122 115 95 80 75
99 99 96 94 93 91 89 89 90 91 92 94 94 93 92 88 85 84 84 84 83 83 84 86 85 81 78 75 73 71 66 60 54 56 84 104 102 97 99 105 104 101 102 103 95 88 85 83 78 74 72 70 65 60 57 54 54 54 55 59 66 69 69 64 53 45 45 46 44 39 31 27 27 35 65 94 105 106 102 95 88 78 60 48 44
96 98 100 99 97 95 93 91 92 94 95 95 94 94 94 92 89 86 84 84 84 85 88 88 84 78 73 72 72 69 60 52 51 65 98 115 114 110 109 107 101 98 97 94 89 86 85 85 82 78 76 74 70 67 64 61 56 52 51 58 65 69 68 61 52 50 55 50 41 37 35 32 35 68 105 110 107 102 92 73 55 44 37 34 33
95 95 98 98 95 94 94 93 91 92 93 94 93 91 92 95 96 92 88 86 88 91 92 89 83 75 70 68 69 66 61 62 74 96 110 117 119 116 111 104 97 91 84 85 89 91 90 88 84 80 78 78 76 73 71 68 62 56 53 58 66 71 69 62 52 47 52 46 36 39 48 51 63 101 117 112 95 78 65 52 42 42 48 54 50
89 91 92 93 91 89 89 91 92 94 97 97 94 91 90 95 103 103 97 92 92 93 91 87 80 73 71 72 69 66 67 75 89 103 111 116 118 118 114 104 92 80 75 84 92 94 92 89 85 80 78 79 78 76 72 67 62 56 54 59 70 77 73 64 56 51 49 45 42 48 60 68 84 105 111 99 80 70 71 71 67 66 67 62 46
87 92 91 89 88 86 84 85 91 99 105 103 95 91 87 91 112 117 103 92 89 88 84 79 72 71 78 79 68 58 62 76 92 104 109 112 116 118 112 98 86 77 79 86 91 91 91 90 87 82 79 78 77 74 69 64 58 52 51 60 73 78 72 64 60 55 52 52 54 60 71 82 89 93 95 93 90 86 82 78 73 68 65 55 39
90 95 94 88 84 83 84 85 88 95 101 98 94 90 86 92 116 123 106 87 81 81 77 78 82 86 89 85 73 62 64 77 96 109 113 115 123 122 100 91 89 87 85 87 91 93 91 88 86 82 77 73 71 68 67 67 61 53 56 67 74 72 68 62 58 56 58 64 69 75 83 88 87 85 90 95 92 83 72 68 68 68 63 53 40
88 91 92 88 83 83 86 85 82 85 90 92 94 94 91 97 111 115 103 85 79 78 79 91 103 102 96 91 87 80 75 84 102 115 117 116 115 106 97 95 96 95 92 91 95 96 92 85 81 78 72 70 71 72 76 76 68 61 66 72 71 69 68 66 65 67 72 76 80 86 91 93 92 94 99 99 91 80 74 75 75 68 54 39 28
90 90 91 88 82 84 89 88 82 79 81 86 92 95 98 102 105 102 93 86 82 79 79 87 96 96 95 101 104 94 86 93 104 109 109 107 102 99 98 97 94 91 90 87 86 86 86 84 82 81 78 76 75 77 79 76 69 66 72 75 74 73 73 72 73 76 79 82 85 86 87 90 92 91 95 97 90 83 85 85 75 59 43 31 21
92 92 92 90 89 91 94 96 95 90 84 88 94 99 103 107 105 99 93 90 83 72 66 69 79 85 94 112 120 107 94 96 99 99 100 101 99 96 93 92 91 90 89 86 84 83 84 84 83 80 77 74 74 76 77 73 69 69 75 80 80 79 78 77 78 81 83 85 87 85 82 83 83 82 87 88 82 79 81 73 52 30 14 4 351
67 73 79 89 99 97 90 90 101 103 91 89 98 106 110 112 110 104 97 93 82 62 48 50 70 87 100 118 124 112 101 100 98 97 97 95 93 91 90 90 93 94 93 91 89 86 84 81 77 72 69 68 71 75 76 74 72 72 75 80 83 85 85 83 84 86 88 89 90 85 76 69 65 66 72 72 71 73 65 42 22 14 18 29 46
47 54 78 100 107 98 84 82 99 116 111 99 102 111 115 117 119 113 102 104 97 61 46 52 88 108 114 124 125 112 108 109 104 100 100 98 95 94 95 94 96 97 97 95 91 86 82 78 73 69 67 67 69 74 80 80 79 79 80 85 92 96 95 91 89 88 89 89 85 76 68 61 56 53 50 49 56 63 41 19 15 38 73 76 76
50 58 83 110 113 97 83 80 99 124 123 106 101 122 131 129 132 129 118 125 132 72 53 67 112 126 126 131 131 116 112 114 110 103 105 108 108 105 102 99 98 96 94 89 83 78 76 74 72 69 68 67 68 76 88 92 89 88 91 96 103 107 105 102 101 98 93 89 81 67 58 51 42 34 33 34 29 10 360 9 33 81 91 80 73
46 52 69 108 117 99 84 85 97 110 105 79 64 121 156 150 145 149 141 130 138 98 69 77 117 133 131 131 132 123 113 112 112 108 106 109 110 109 105 100 95 92 87 82 76 69 65 66 68 68 68 69 70 75 86 93 93 93 98 105 113 118 118 119 120 114 106 97 83 62 50 40 27 21 30 34 24 3 354 27 74 96 90 75 73
35 43 52 97 124 103 76 76 80 80 77 52 38 64 163 172 172 172 162 98 79 106 99 90 114 135 138 136 134 129 118 112 112 113 112 111 109 106 103 98 92 90 86 80 72 63 53 53 58 62 67 73 75 77 85 94 96 98 103 110 121 130 132 130 126 115 100 83 59 42 41 37 28 24 31 29 27 30 42 73 94 99 90 83 85
355 19 38 75 119 77 7 5 19 37 54 40 26 33 159 187 191 191 180 106 77 99 130 121 112 131 145 148 143 134 124 118 119 122 123 119 112 105 101 97 92 90 86 77 68 59 47 40 43 53 65 77 80 81 87 94 96 100 104 111 128 137 134 129 123 104 78 51 31 29 33 32 31 39 50 40 42 56 73 87 92 90 88 95 100
310 323 12 50 54 330 313 311 327 352 13 11 11 23 134 189 195 198 202 171 103 99 131 153 134 136 152 160 159 155 142 129 126 130 129 123 115 108 105 103 99 92 83 77 70 61 52 42 40 53 68 76 79 82 85 84 88 100 107 119 153 168 160 151 159 74 40 17 10 12 15 20 29 46 64 57 53 60 71 79 82 82 86 93 95
286 298 306 22 20 347 317 306 310 321 328 325 336 358 76 190 199 205 216 212 182 147 159 177 151 142 153 165 176 182 174 152 134 132 131 123 111 105 111 118 115 97 77 76 76 69 78 86 65 47 51 53 51 57 67 65 65 66 333 283 268 271 277 275 271 271 278 296 318 330 337 348 2 20 37 38 36 46 62 71 71 71 77 83 79
336 341 293 328 355 346 326 313 308 307 308 307 307 313 271 200 212 223 229 228 224 216 213 210 187 154 155 166 181 192 196 194 179 160 150 139 116 101 107 138 151 132 61 33 254 182 137 115 64 9 2 9 19 32 38 33 23 352 306 283 273 273 273 268 262 257 258 270 289 300 307 313 314 319 341 1 20 54 61 59 52 53 66 72 61
331 353 325 331 342 338 330 327 320 309 300 296 295 295 279 241 237 242 241 239 242 241 231 223 217 200 184 181 184 191 202 210 209 197 186 183 170 148 150 224 230 227 232 233 214 178 146 102 49 21 12 17 29 38 32 22 13 359 337 312 281 260 250 245 243 238 238 249 268 282 299 308 302 296 321 17 100 108 64 45 42 44 51 49 38
261 307 317 320 323 322 324 332 333 324 314 301 291 291 292 282 273 276 281 272 260 248 238 233 234 228 214 204 205 209 215 221 221 217 214 214 210 203 211 239 248 239 228 212 182 152 103 41 33 37 39 34 35 34 25 17 9 357 347 336 311 270 241 227 224 223 222 229 242 259 292 319 309 263 208 151 143 142 94 52 45 35 23 17 23
264 295 305 305 307 310 316 323 327 332 335 327 303 291 291 291 289 289 292 291 279 258 242 237 238 236 230 225 226 232 241 245 240 232 227 224 220 216 220 237 245 237 224 212 201 66 7 11 18 25 31 31 31 22 14 15 11 2 354 351 346 302 222 211 211 213 214 220 236 252 268 294 299 220 190 174 169 181 243 355 360 355 351 354 22
Height
777 778 782 785 786 785 785 786 788 790 792 794 797 797 800 805 806 805 806 808 810 812 813 815 816 818 819 820 821 822 823 824 826 827 827 829 830 831 832 833 834 835 836 837 837 838 839 839 840 841 841 842 842 843 843 844 845 846 846 848 849 850 851 852 853 855 857 858 859 860 861 862 863 864 864 865 866 867 868 869 870 871 871 872 873
775 778 781 784 784 784 784 786 787 790 791 793 795 795 797 802 805 804 806 808 809 811 813 815 816 818 819 820 821 822 823 824 826 827 828 829 830 831 832 833 834 835 836 837 837 838 839 839 840 840 841 842 842 843 844 844 845 846 846 848 849 850 851 852 853 855 856 858 859 860 861 862 862 863 864 864 865 866 867 868 869 870 871 871 872
778 779 781 782 783 783 784 785 787 789 790 791 793 794 795 800 803 804 805 807 809 811 813 815 816 817 818 820 821 822 823 824 826 827 828 829 830 831 832 833 834 835 836 836 837 838 839 840 840 840 841 842 843 844 844 844 845 845 846 847 848 849 851 851 852 853 855 857 858 859 860 861 862 863 863 864 865 865 866 867 868 869 869 870 871
781 780 780 781 781 782 783 784 786 787 789 789 791 793 796 799 802 803 805 807 809 811 813 814 815 817 818 819 821 822 823 824 826 827 828 830 831 831 832 833 834 835 836 836 837 838 839 839 840 841 841 842 843 844 844 844 844 844 845 846 847 848 849 850 851 852 853 855 857 858 859 860 861 862 863 864 865 865 866 866 867 868 868 869 870
781 780 780 780 780 780 781 783 784 786 787 788 790 793 795 798 801 803 805 808 810 811 813 814 815 816 818 819 821 822 823 825 826 828 829 830 831 831 832 833 834 835 836 836 837 838 839 840 840 841 842 843 843 843 843 843 843 843 844 844 846 847 848 849 850 850 851 853 855 857 859 860 861 862 862 863 864 865 865 866 866 867 867 868 869
781 780 780 779 780 780 781 782 784 786 787 789 790 793 795 798 801 803 805 807 810 811 813 814 815 817 818 820 821 822 823 825 827 828 829 830 831 832 832 833 834 835 836 837 838 838 839 840 841 842 843 843 844 844 843 843 843 843 844 844 845 846 847 848 849 850 851 852 853 856 858 859 860 861 861 862 862 863 863 864 865 866 866 866 867
782 780 780 780 781 782 782 784 786 788 789 789 791 793 795 798 800 803 805 808 809 811 813 814 816 817 819 820 821 822 823 825 827 828 830 831 832 832 832 832 834 835 836 837 838 838 839 840 841 842 843 843 844 844 844 844 845 845 845 845 845 846 847 848 849 850 851 851 853 854 855 857 858 859 860 861 862 863 863 863 863 863 864 864 864
783 782 782 783 784 785 786 788 789 791 793 793 793 795 796 799 801 803 806 808 809 811 813 814 815 817 819 820 821 822 824 825 826 828 829 831 832 833 832 833 834 835 836 837 838 839 839 840 841 841 842 843 843 844 845 845 846 846 846 847 847 847 847 848 849 850 851 851 852 853 854 856 857 858 860 861 862 862 861 860 860 860 861 861 861
783 783 782 783 785 786 788 791 792 794 797 797 797 798 799 800 802 804 806 808 810 812 813 814 815 816 818 820 821 823 824 825 827 828 829 831 832 833 833 833 834 835 836 838 839 839 840 840 841 842 842 843 844 844 845 846 846 846 847 848 848 849 849 849 849 850 851 851 852 853 854 855 856 857 858 858 858 858 858 859 859 858 859 859 859
783 783 783 783 785 786 788 791 792 794 796 797 798 800 801 802 803 805 807 808 810 811 812 813 815 816 818 820 822 823 824 826 827 828 829 831 832 833 834 834 835 836 837 838 839 840 841 841 842 842 843 843 844 845 846 846 846 846 847 847 848 850 850 850 851 851 851 852 852 853 853 854 855 855 855 855 855 856 857 857 857 858 859 859 858
783 784 785 785 786 786 788 790 791 793 796 797 799 801 802 803 804 805 807 808 809 810 811 813 815 817 819 820 822 824 825 826 828 829 830 831 832 833 834 835 836 837 838 839 840 840 841 842 843 843 844 844 845 845 846 846 846 846 847 847 848 849 850 851 852 852 852 853 853 854 854 854 855 855 855 855 856 856 856 855 855 856 857 857 855
786 787 787 787 786 786 788 790 792 794 796 797 800 801 802 803 804 805 806 808 809 810 812 814 816 818 819 821 822 824 826 827 828 829 830 831 832 833 835 836 837 838 839 840 840 841 842 843 844 844 845 845 846 846 846 846 846 846 847 848 848 848 849 850 851 852 853 854 854 855 855 854 855 855 854 854 854 854 854 854 854 854 854 854 852
791 790 791 790 788 787 788 790 792 794 795 796 799 801 802 802 803 805 806 808 810 811 813 815 817 819 820 821 823 825 827 829 830 830 831 831 832 834 835 837 838 839 840 841 841 842 843 843 844 845 847 847 846 846 846 846 846 846 847 847 848 848 848 848 849 850 852 853 854 854 854 853 853 853 852 852 852 853 853 852 852 851 850 849 848
795 794 794 794 792 790 790 790 793 796 797 797 799 802 802 802 803 804 806 808 810 812 815 817 818 820 821 822 824 826 828 830 831 831 832 832 833 834 835 838 839 840 842 842 843 843 844 844 844 845 846 846 845 845 846 846 846 846 846 847 847 847 847 847 848 849 850 851 851 852 852 851 851 851 851 851 851 851 851 850 850 849 847 846 845
799 799 798 797 796 795 794 793 794 797 799 799 800 802 803 804 805 805 806 809 811 814 816 818 820 821 823 823 825 826 828 830 831 832 833 833 834 834 835 838 840 841 843 844 844 843 843 843 844 845 845 845 845 845 845 845 845 845 846 846 846 846 846 846 846 847 848 849 849 850 850 850 849 849 850 850 849 849 849 848 848 847 845 844 844
802 802 801 800 800 800 799 798 798 799 800 800 801 803 804 806 807 808 808 810 813 815 817 819 820 822 823 824 825 826 828 830 831 832 833 834 834 835 837 839 841 842 843 843 843 842 842 843 843 844 845 845 845 844 844 844 844 845 845 845 845 845 845 845 846 846 847 848 848 848 848 848 848 848 848 848 848 847 847 846 845 844 843 842 841
806 805 804 803 803 803 803 802 802 802 802 801 803 805 807 808 810 811 811 812 815 817 818 820 822 823 825 826 827 827 828 830 831 832 833 834 834 836 838 839 840 841 842 842 842 842 842 843 843 844 844 844 844 844 844 844 844 844 845 845 845 845 845 845 845 846 846 846 847 847 846 846 846 846 846 846 846 845 845 844 843 842 841 840 839
810 808 807 807 806 806 805 805 805 805 805 805 805 807 810 812 813 815 815 814 816 819 820 822 824 826 826 827 829 829 830 831 832 833 833 834 835 836 837 838 839 841 841 841 841 842 842 843 843 843 843 844 844 844 844 844 844 844 845 845 845 845 845 845 845 845 845 845 845 845 845 845 845 845 844 844 844 843 843 842 842 842 841 839 838
813 812 811 810 809 809 808 808 808 808 808 809 808 809 812 814 815 817 817 817 818 820 822 823 824 826 827 830 832 833 832 833 833 833 834 835 836 836 836 837 838 840 840 840 841 842 843 843 843 843 844 844 844 845 845 845 845 845 845 845 845 845 845 845 844 844 844 844 844 844 844 844 844 843 843 843 843 842 842 841 842 842 840 838 839
816 815 814 812 811 811 810 810 811 810 810 811 811 812 813 815 817 818 818 818 819 822 824 824 826 828 831 834 835 835 834 834 834 834 835 835 836 836 836 837 838 839 840 840 841 842 843 843 844 844 844 845 845 845 845 845 845 845 845 844 844 844 844 844 844 843 843 843 843 843 843 843 843 843 842 842 842 841 841 840 841 841 840 839 839
818 817 816 814 813 813 813 812 812 812 813 813 813 814 815 816 817 818 819 820 822 824 826 827 829 832 835 836 836 835 835 835 835 836 836 836 837 837 837 838 839 839 839 840 841 842 843 844 844 844 845 845 845 845 845 845 845 845 844 844 844 844 844 843 843 843 842 842 843 843 842 842 842 842 841 841 841 840 839 839 839 839 839 838 838
821 820 818 817 816 815 815 815 815 815 816 815 816 817 818 818 819 820 821 822 824 826 828 829 831 834 836 837 837 836 836 836 836 837 838 838 839 839 839 839 840 840 840 840 842 843 843 844 844 845 845 845 845 845 845 845 845 844 844 844 844 843 843 843 842 842 842 842 841 841 841 841 840 840 840 840 840 839 839 838 838 838 837 837 836
824 823 822 820 819 819 819 819 819 819 819 819 819 820 821 821 822 823 823 825 826 828 830 832 833 835 837 838 838 838 838 838 838 839 839 839 840 840 840 840 840 841 841 841 842 843 843 844 844 844 845 845 844 844 844 844 844 844 844 844 843 843 843 843 842 842 841 841 841 840 840 840 839 839 839 839 839 838 838 838 838 838 837 837 836
827 826 826 824 823 823 822 822 822 822 822 822 822 823 824 825 825 826 827 828 830 832 833 834 834 835 838 839 839 839 840 839 839 839 839 840 840 840 840 840 841 841 841 841 842 842 843 843 843 844 844 844 844 844 844 844 844 844 844 844 844 844 843 843 842 842 841 841 840 840 840 839 839 838 838 838 838 838 838 838 838 838 838 838 837
830 829 829 828 827 826 826 825 826 826 826 826 826 826 827 828 828 830 830 831 833 835 836 837 837 838 839 840 841 841 841 840 840 840 840 840 840 841 841 841 841 842 841 841 842 842 842 843 843 843 843 843 844 844 844 844 844 844 844 844 844 844 843 843 843 842 842 842 841 841 840 839 839 838 838 838 838 838 838 838 838 838 838 838 838
832 832 831 831 830 830 829 829 829 829 829 829 829 829 830 831 832 833 834 835 836 837 838 839 840 840 841 842 842 843 842 841 841 841 841 842 841 842 842 842 842 842 842 842 842 842 842 843 843 843 843 844 844 844 844 844 845 845 845 844 844 844 844 844 844 843 843 843 842 841 841 840 839 839 839 839 839 839 839 839 839 839 839 839 839
835 835 834 834 833 832 832 832 832 832 832 832 833 833 834 834 835 836 837 838 839 839 840 841 841 842 843 843 843 843 843 842 842 842 842 842 842 842 843 842 842 842 842 842 842 842 842 843 843 843 844 844 844 844 844 845 845 845 845 845 845 845 845 845 845 844 844 844 843 842 841 841 840 840 840 840 840 840 840 840 840 840 840 839 839
838 838 837 837 836 836 836 835 835 835 835 835 836 836 837 837 837 838 840 841 842 842 842 843 843 843 843 844 844 843 843 843 843 843 843 843 843 843 843 842 842 842 842 842 843 843 843 843 843 844 844 844 844 844 845 845 845 845 846 846 846 846 846 846 846 845 845 844 843 843 842 842 841 841 841 841 841 841 841 841 841 841 841 840 840
841 841 840 840 840 840 839 839 838 838 838 838 839 839 840 840 840 841 842 843 844 844 844 844 844 844 844 844 845 844 844 844 844 844 844 844 844 844 843 843 843 843 843 843 843 843 843 843 844 844 845 845 845 845 846 846 846 847 847 847 847 847 846 846 846 846 845 845 844 843 843 842 842 842 841 841 841 841 841 841 842 842 842 842 842
843 843 843 843 844 843 843 843 842 842 842 842 842 842 843 843 843 843 844 844 845 845 844 845 846 846 846 845 845 845 845 845 845 844 844 845 845 845 844 844 844 844 844 844 844 843 844 844 845 846 846 846 847 847 848 848 848 847 847 847 847 847 846 846 846 846 846 845 845 844 844 843 843 843 842 842 842 842 842 842 843 843 843 843 843
844 845 846 846 846 846 846 846 846 846 846 846 846 845 846 846 846 846 846 846 846 846 846 846 847 847 847 846 846 846 846 846 845 845 845 845 845 845 845 846 845 846 846 845 845 845 846 846 847 848 848 848 849 849 849 849 848 848 848 847 847 847 847 846 846 846 846 846 845 845 845 844 844 844 843 843 843 843 843 843 843 843 843 843 843
847 847 848 848 848 848 848 848 848 848 848 848 848 848 848 848 849 849 849 848 848 848 848 848 848 848 848 848 848 848 847 847 846 845 845 845 846 846 846 847 847 847 847 846 846 847 848 848 849 850 850 850 851 851 850 849 849 848 848 848 847 847 847 847 847 847 846 846 846 845 845 845 844 844 844 844 844 844 844 844 844 844 844 844 844
850 850 850 850 850 850 850 850 850 850 850 850 850 851 851 851 851 851 851 851 850 850 850 850 850 850 850 850 850 849 849 848 847 846 846 846 846 847 847 848 848 848 848 847 847 849 850 850 850 851 851 851 851 851 850 850 850 849 849 848 848 848 847 847 847 847 847 846 846 846 845 845 845 845 845 845 845 845 845 845 845 844 844 844 844
853 853 852 852 852 852 852 852 851 851 851 852 852 852 852 852 852 853 853 853 853 852 852 852 852 852 852 851 851 851 851 850 849 848 848 847 848 848 848 848 849 849 849 849 849 850 851 851 852 852 852 852 852 852 851 851 850 850 849 848 848 848 848 848 848 848 847 847 846 846 846 846 846 846 846 846 846 846 845 845 845 845 845 845 845
854 854 854 854 854 853 854 853 853 853 853 853 853 853 853 853 854 854 854 854 854 854 854 854 853 853 853 853 852 852 852 852 851 851 850 850 850 849 849 849 850 850 851 851 852 852 853 853 853 853 853 852 852 852 851 851 850 850 849 849 848 848 848 848 848 848 848 847 847 846 846 846 847 847 847 847 847 847 846 846 846 846 846 846 846
856 856 856 856 855 855 855 855 855 855 855 855 855 855 855 855 855 855 856 856 856 855 855 855 854 854 854 853 853 853 852 852 852 852 852 851 851 851 850 850 851 852 853 854 854 854 854 854 854 853 853 852 852 852 852 851 851 851 850 850 849 849 849 849 849 848 848 848 847 847 847 848 848 848 848 848 848 848 848 848 847 847 847 847 846
858 858 857 857 857 857 857 857 857 857 857 857 856 856 856 856 856 857 857 857 857 856 856 856 855 855 855 855 854 854 853 853 853 852 852 852 852 851 851 852 853 853 854 855 855 854 854 854 854 853 853 853 853 853 853 853 852 852 851 851 850 850 850 850 850 849 849 849 849 849 849 849 849 849 849 849 849 849 849 848 848 848 847 847 847
860 860 859 859 859 858 859 859 859 859 858 858 858 858 858 858 858 859 859 858 858 858 857 857 856 856 856 856 856 855 855 854 853 853 853 853 853 852 853 853 854 854 854 854 854 854 854 854 855 855 855 855 854 854 854 853 853 852 852 852 851 851 851 851 851 851 851 851 851 851 851 851 850 850 850 850 850 850 850 849 849 848 848 848 847
862 861 861 861 860 860 860 860 860 860 860 860 860 859 859 860 860 860 860 860 859 859 858 858 857 857 857 857 857 857 856 856 855 855 855 855 855 854 854 854 854 854 855 855 856 856 856 856 856 856 855 855 854 854 854 854 853 853 853 853 853 853 853 853 853 853 853 853 853 853 853 853 852 852 852 851 851 851 851 850 850 849 848 848 847
863 863 862 862 861 861 861 861 861 861 861 861 861 861 861 861 861 861 861 861 860 860 859 859 858 858 858 858 858 857 857 857 857 857 856 856 856 856 855 856 856 857 857 858 858 858 857 857 857 856 855 855 854 854 854 855 855 855 855 855 855 855 855 855 855 855 855 855 855 855 855 854 854 854 853 853 853 852 852 851 851 850 849 848 847
864 864 863 863 862 862 862 862 862 862 862 862 862 862 862 862 862 862 862 861 861 861 860 859 859 859 859 859 859 858 858 858 858 858 858 858 858 858 858 858 858 859 859 859 859 858 858 857 857 856 856 856 856 856 856 856 856 856 856 857 857 857 857 857 857 856 856 856 856 856 856 855 855 855 854 854 854 853 853 852 851 850 850 849 848
865 865 864 864 864 864 864 863 863 863 863 863 863 863 863 863 863 863 862 862 862 862 861 861 860 860 860 860 860 859 859 859 859 859 859 859 859 859 860 860 860 860 860 860 859 859 859 858 858 858 858 858 858 858 858 858 858 858 858 858 858 858 858 858 857 857 857 857 857 856 856 856 856 855 855 854 854 854 853 852 852 851 851 850 850
866 866 865 865 865 865 864 864 864 864 864 864 864 864 864 864 863 863 863 863 862 862 862 862 862 862 862 862 861 861 860 860 860 860 860 860 861 861 861 861 861 861 861 860 860 860 860 860 860 860 860 860 860 860 860 860 860 860 859 859 859 859 858 858 858 858 857 857 857 857 857 856 856 855 855 855 854 854 853 853 852 852 852 851 851
867 866 866 866 866 866 866 865 865 865 865 865 864 864 864 864 864 864 863 863 862 862 863 863 863 863 863 862 862 862 861 861 861 861 862 862 862 862 862 862 862 862 861 861 861 861 861 862 862 862 862 862 862 862 861 861 861 861 860 860 860 859 859 859 858 858 858 858 858 857 857 857 856 856 855 855 854 854 853 853 853 853 852 852 852
867 867 867 867 867 866 866 866 866 865 865 865 864 864 864 864 864 864 864 863 863 863 863 864 864 863 863 863 863 862 862 862 862 862 862 862 862 862 862 862 862 862 862 862 863 863 863 863 863 863 863 863 863 863 862 862 861 861 860 860 860 860 859 859 859 859 858 858 858 858 857 857 856 856 856 856 855 854 854 854 854 853 853 852 852
867 867 867 867 867 867 866 866 866 866 865 865 865 864 863 863 864 864 864 864 863 863 863 863 863 863 863 863 863 863 863 863 863 862 862 862 862 862 862 863 863 863 863 864 864 864 864 864 864 864 864 864 863 863 862 862 861 861 860 860 860 860 859 859 859 859 859 858 858 858 858 858 857 857 856 856 856 855 855 854 854 854 853 853 852
866 866 867 866 866 866 866 866 866 865 865 865 865 864 863 863 863 864 864 863 863 863 863 863 863 863 863 863 863 863 863 863 863 863 863 863 862 863 863 863 863 864 864 864 865 865 865 865 865 865 864 864 863 863 862 861 861 860 860 860 860 859 859 859 859 859 859 859 858 858 858 858 858 857 857 857 856 856 856 855 855 854 854 853 853
866 866 866 866 866 866 866 865 865 865 864 864 864 863 863 863 863 863 863 863 862 862 862 862 862 862 863 862 863 863 863 863 863 863 863 863 863 863 863 864 864 864 865 865 865 866 866 865 865 865 864 864 863 862 861 861 860 860 860 859 859 859 859 858 858 858 858 858 858 858 858 858 858 857 857 857 856 856 856 855 855 855 854 853 853
866 865 865 865 865 865 865 865 864 864 864 863 863 863 863 863 863 862 862 862 862 862 862 862 862 862 862 862 862 862 862 863 863 863 863 863 864 864 864 864 865 865 865 865 866 866 866 865 865 864 864 863 862 862 861 860 860 859 859 859 858 858 858 858 858 858 858 858 858 858 858 858 858 857 857 857 856 856 856 855 855 855 854 854 853
865 865 865 865 865 865 865 864 864 863 863 863 862 862 861 862 862 862 861 861 861 861 861 861 861 861 861 861 861 862 862 862 863 863 863 864 864 864 865 865 865 865 866 866 866 865 865 865 864 864 863 863 862 861 861 860 859 859 858 858 857 857 857 857 857 858 858 858 858 858 858 858 857 857 857 857 856 856 856 856 855 855 854 854 853
865 865 865 865 864 864 864 864 863 863 862 862 861 861 861 861 860 860 860 860 860 859 859 860 860 860 860 861 861 861 861 862 862 863 863 864 864 865 865 865 865 866 866 865 865 865 865 864 864 863 863 862 862 861 860 860 859 859 858 857 857 856 856 857 857 857 857 858 858 858 858 857 857 857 857 857 856 856 856 856 855 855 854 854 853